Temperature
10 11 11 11 12 12 12 13 13 13 13 13 14 13 14 14 14 14 14 14 14 14 14 14 15 15 15 15 15 15 15 15 15 15 15 15 15 15 15 15 15 15 15
10 10 11 11 12 12 12 12 13 13 13 13 13 13 13 13 14 14 14 14 14 14 14 14 14 14 14 14 14 15 15 15 15 15 15 14 15 15 15 15 15 14 15
10 10 10 11 11 12 12 12 12 13 13 13 13 13 13 13 13 13 13 13 14 14 14 14 14 14 14 14 14 14 14 14 14 14 14 14 14 14 15 15 15 15 15
10 10 10 11 11 11 12 12 12 12 13 13 13 13 13 13 13 13 13 13 13 13 14 14 14 14 14 14 14 14 14 14 14 14 14 14 14 14 14 14 14 14 14
9 10 10 10 11 11 11 12 12 12 12 12 13 13 13 13 13 13 13 13 13 13 13 13 14 14 14 14 14 14 14 14 14 13 13 13 14 14 14 14 14 14 14
9 9 10 10 10 11 11 11 12 12 12 12 12 12 13 13 13 13 12 12 13 13 13 13 13 13 14 13 14 14 14 13 13 13 13 13 13 14 14 14 14 14 14
9 9 9 10 10 10 11 11 11 11 12 12 12 12 12 12 12 12 12 12 12 12 12 12 13 13 13 13 13 13 13 13 13 13 13 13 13 13 13 13 14 14 14
9 9 9 10 10 10 10 11 11 11 11 11 11 12 12 12 12 12 12 12 12 12 12 12 12 13 13 13 13 13 13 13 13 13 13 13 13 13 13 13 13 13 13
8 9 9 9 9 10 10 10 10 10 10 11 11 11 11 11 11 12 12 12 12 12 12 12 12 12 12 12 12 13 13 13 12 12 12 12 13 13 13 13 13 13 13
8 8 8 9 9 9 9 10 10 10 10 10 10 10 11 11 11 11 11 11 11 11 11 12 12 12 12 12 12 12 12 12 12 12 12 12 12 12 13 13 13 13 13
7 8 8 8 8 9 9 9 9 9 9 9 10 10 10 10 10 10 11 11 11 11 11 11 11 11 12 12 12 12 12 11 11 11 12 12 12 12 12 12 12 12 12
7 7 7 7 8 8 8 8 9 9 9 9 9 9 10 10 10 10 10 10 10 11 11 11 11 11 11 11 11 11 11 11 11 11 11 12 12 12 12 12 12 12 12
6 6 7 7 7 7 8 8 8 8 8 8 9 9 9 9 9 10 10 10 10 10 10 10 10 10 10 11 11 11 11 11 11 11 11 11 11 11 11 11 11 11 12
6 6 6 6 7 7 7 7 7 7 8 8 8 8 8 9 9 9 9 9 9 9 10 10 10 10 10 10 10 10 10 10 10 10 10 11 11 11 11 11 11 11 11
5 5 5 6 6 6 6 7 7 7 7 7 7 7 8 8 8 8 8 9 9 9 9 9 9 9 9 10 10 10 10 10 10 10 10 10 10 10 10 11 11 11 11
5 5 5 5 5 5 6 6 6 6 6 6 7 7 7 7 7 7 8 8 8 8 8 8 8 9 9 9 9 9 9 9 9 9 9 10 10 10 10 10 10 10 10
4 4 4 4 5 5 5 5 5 5 6 6 6 6 6 6 7 7 7 7 7 7 7 8 8 8 8 8 8 9 9 9 9 9 9 9 9 9 9 10 10 10 10
4 4 4 4 4 4 4 5 5 5 5 5 5 5 5 6 6 6 6 6 7 7 7 7 7 7 7 8 8 8 8 8 8 8 8 9 9 9 9 9 9 9 9
3 3 3 3 3 4 4 4 4 4 4 4 4 4 5 5 5 5 5 6 6 6 6 6 6 6 7 7 7 7 7 8 8 8 8 8 8 8 8 8 9 9 9
2 3 3 3 3 3 3 3 3 3 3 4 4 4 4 4 4 4 4 5 5 5 5 5 5 6 6 6 6 6 7 7 7 7 7 7 7 7 8 8 8 8 8
2 2 2 2 2 2 2 3 3 3 3 3 3 3 3 3 4 4 4 4 4 4 4 4 4 5 5 5 5 5 6 6 6 6 6 6 6 7 7 7 7 7 8
2 2 2 2 2 2 2 2 2 2 2 2 2 2 2 3 3 3 3 3 3 3 3 3 3 4 4 4 4 4 4 4 5 5 5 5 5 6 6 6 6 6 6
1 1 1 1 1 1 1 1 1 1 1 1 2 2 2 2 2 2 2 2 2 2 2 2 3 3 3 3 3 2 3 3 3 3 4 4 5 5 5 5 5 6 6
1 1 1 1 1 1 1 1 1 1 1 1 1 1 1 1 1 1 1 1 1 1 1 2 2 2 1 2 2 2 2 2 1 2 3 3 4 4 4 4 4 5 5
1 1 1 1 1 0 0 0 0 0 -0 -0 -0 -0 0 0 0 0 1 0 1 1 1 1 1 1 1 1 1 1 1 1 1 0 1 2 2 3 3 3 4 4 4
0 0 0 0 0 -0 -0 -0 -0 -1 -1 -1 -1 -1 -1 -0 -0 -0 -0 -0 -0 -0 -0 0 0 0 0 0 0 0 -0 -0 -0 -0 0 0 1 1 2 2 2 3 3
Wind_Speed
6 12 13 14 12 11 12 13 13 14 14 14 14 14 14 12 12 11 11 11 11 11 12 11 11 11 12 12 12 12 12 12 12 12 12 12 12 12 11 9 8 11 12
7 10 12 12 11 11 12 13 13 14 14 14 14 14 14 14 12 11 11 11 11 12 12 12 11 11 11 12 12 12 11 11 11 11 10 10 11 11 10 10 11 11 11
8 9 10 11 11 11 12 13 13 14 14 14 14 14 13 13 13 12 11 11 11 11 12 12 12 12 11 12 11 11 11 11 10 8 5 7 10 10 10 11 11 11 10
8 9 9 11 12 12 13 13 13 14 14 14 14 14 13 13 13 13 11 12 12 12 12 12 12 12 12 11 11 11 10 10 8 5 6 7 8 10 10 10 10 10 10
8 9 10 12 12 12 13 14 14 14 14 14 14 13 13 13 14 14 12 12 12 12 12 12 12 12 12 11 11 10 9 8 5 5 7 7 7 9 9 9 9 9 9
8 10 10 12 13 12 13 14 14 14 14 14 14 13 13 13 14 14 14 13 12 12 11 12 11 11 11 11 11 10 9 7 4 6 6 6 7 8 8 8 8 8 8
9 10 11 13 13 14 13 13 14 14 14 14 14 14 13 13 14 14 14 14 13 12 12 11 11 11 11 11 11 10 9 7 5 6 6 6 7 6 6 6 6 7 7
8 9 11 12 14 15 15 14 13 14 14 14 14 14 13 13 14 14 14 14 13 12 11 11 11 10 10 10 10 10 9 6 4 5 5 6 7 5 5 5 5 5 5
8 9 11 11 12 14 15 15 14 13 13 14 13 13 13 13 13 13 13 13 13 12 11 10 10 10 10 10 10 10 8 7 4 5 5 6 7 6 4 4 4 4 4
8 9 10 11 11 11 12 14 15 13 13 13 13 13 12 11 11 12 12 13 13 12 11 10 9 9 9 9 9 9 7 4 5 4 4 7 8 7 5 4 3 2 3
7 8 9 10 10 10 10 11 12 12 12 11 11 12 10 9 9 9 11 12 13 12 11 9 8 8 6 7 8 7 5 5 5 5 5 7 7 7 6 5 3 2 3
6 7 8 9 9 9 9 9 9 9 9 10 9 9 9 8 8 8 9 11 12 11 10 9 7 6 5 4 5 4 4 5 4 5 5 7 7 6 6 5 4 3 2
4 5 6 7 8 8 8 8 8 8 8 9 10 9 8 8 7 8 7 8 9 9 8 7 5 5 5 4 4 4 4 3 3 4 5 8 6 6 6 5 4 2 2
3 4 5 7 7 7 7 7 7 7 8 8 8 9 8 7 7 7 7 7 7 7 7 7 6 5 4 4 3 3 3 3 3 3 4 7 7 7 6 5 5 3 1
3 3 4 6 6 6 6 6 7 7 7 8 8 8 8 7 6 6 6 7 7 7 7 7 6 6 5 4 4 4 3 3 3 3 3 5 7 7 7 6 5 4 2
2 3 4 5 5 6 6 6 6 6 7 7 8 8 8 7 7 6 6 6 7 7 7 6 6 5 4 3 3 4 4 3 3 3 3 3 5 7 7 6 6 5 4
2 2 3 4 5 5 6 6 6 6 7 7 7 8 8 8 7 6 6 6 7 7 7 6 6 5 4 3 3 3 3 3 3 3 3 3 3 4 6 6 6 5 4
2 2 3 3 4 4 5 5 5 6 6 7 7 7 8 8 7 7 5 6 7 6 6 6 6 4 4 3 3 3 3 2 3 2 2 2 3 4 4 5 5 5 5
2 2 3 3 3 4 4 4 5 6 6 7 7 8 8 8 7 7 6 6 6 6 6 5 5 5 4 4 3 3 2 2 2 2 2 2 3 4 4 4 4 5 5
2 2 2 2 3 3 3 3 4 5 6 6 7 8 8 8 7 6 6 6 6 5 5 5 5 5 4 4 4 3 3 3 2 2 2 2 3 4 4 4 4 4 4
2 2 2 2 3 3 2 2 2 3 4 5 6 8 8 8 8 6 5 6 5 4 4 5 5 5 4 4 3 3 2 2 2 2 2 3 3 4 4 4 4 4 4
2 2 1 2 2 2 2 2 2 2 2 4 5 6 8 8 8 7 6 5 5 4 4 5 5 4 4 4 3 2 2 2 1 2 3 3 3 4 4 4 4 4 5
3 2 1 1 1 2 2 2 2 2 2 3 4 5 7 8 8 7 6 5 5 5 4 4 4 4 4 4 3 2 2 2 4 3 3 3 4 4 4 5 5 5 5
3 2 1 1 1 1 2 1 2 2 3 4 4 4 6 7 7 7 7 6 5 5 4 4 4 4 4 4 3 3 3 3 3 3 4 4 5 5 6 5 6 6 6
3 3 2 1 0 1 1 1 1 2 2 2 3 4 5 5 6 6 6 6 5 5 5 5 5 4 4 5 5 4 4 4 6 5 6 6 6 6 6 6 7 7 6
3 3 2 2 1 1 1 1 1 2 3 3 4 4 4 4 5 6 6 6 6 5 5 5 5 6 5 6 6 5 5 5 5 5 7 8 8 7 7 7 7 7 7
Wind_Direction
356 346 349 354 10 30 35 39 42 42 42 42 43 45 46 50 54 59 58 56 54 55 58 60 63 65 66 66 66 66 66 63 65 65 68 72 72 71 72 66 70 79 74
342 345 353 1 17 32 38 41 42 42 42 43 43 45 45 45 49 55 55 56 55 55 58 60 61 64 66 67 66 66 65 64 63 64 69 79 75 70 68 61 55 74 74
357 357 2 14 25 35 41 42 43 43 43 42 42 44 45 43 43 49 53 54 54 55 56 59 60 60 63 65 64 65 64 62 63 61 69 79 80 71 70 69 69 74 77
6 6 14 21 29 39 44 44 45 45 43 42 41 42 43 42 42 45 51 52 53 55 56 58 59 59 59 62 63 64 64 61 59 48 65 67 77 73 71 72 72 72 76
17 15 22 27 33 41 47 47 45 44 43 41 40 40 42 41 40 41 45 50 51 53 56 56 58 59 59 59 61 62 61 58 52 52 62 65 72 71 70 70 70 71 74
27 23 28 31 36 41 47 47 44 42 41 39 39 40 43 40 38 37 40 44 47 50 53 53 54 57 58 58 58 58 58 50 50 59 59 63 69 69 69 68 67 68 73
30 25 30 35 37 41 45 47 46 43 42 40 39 39 41 41 40 39 38 39 42 46 48 48 48 54 57 57 56 54 50 41 48 56 53 56 57 59 67 67 63 66 71
35 31 33 36 37 39 41 43 45 44 42 41 41 40 41 42 41 40 39 37 37 40 44 46 45 49 53 55 54 50 44 35 52 54 47 51 47 48 59 62 60 60 69
42 39 36 35 37 39 40 39 41 43 42 41 41 41 39 41 42 40 38 36 34 35 39 44 45 46 49 52 49 45 38 23 42 49 42 48 39 38 52 56 56 56 67
45 40 36 36 35 35 37 39 39 41 41 41 39 38 37 38 41 39 36 35 33 31 34 40 45 44 48 50 46 40 32 15 37 41 41 45 35 33 40 43 49 58 65
42 35 33 33 33 32 34 35 36 37 37 35 33 31 30 30 34 37 33 32 33 29 29 34 42 41 43 51 46 40 32 23 25 32 39 35 27 26 28 33 41 58 73
38 31 28 29 28 28 29 29 29 30 30 29 26 24 23 24 26 28 31 30 29 24 24 29 39 41 32 34 37 34 26 16 25 29 34 28 21 18 16 22 32 41 62
46 35 28 26 28 29 29 28 28 26 26 26 23 20 20 21 20 22 22 19 18 17 16 18 26 29 24 21 15 11 11 13 16 22 31 24 18 19 16 15 16 10 25
53 41 32 27 31 31 32 33 30 27 26 25 21 18 17 19 18 19 21 14 11 8 6 9 8 8 13 16 8 2 3 1 0 12 28 25 16 13 13 9 2 350 32
67 47 36 30 33 32 34 35 33 29 27 25 22 19 19 19 15 15 17 14 10 5 4 2 2 2 3 6 2 356 350 349 355 2 17 26 17 12 8 1 359 4 13
74 52 40 39 37 37 38 36 34 30 25 25 26 22 19 18 15 10 12 13 10 4 358 354 355 350 354 353 351 347 340 342 347 354 351 7 22 17 9 358 357 355 350
84 65 50 45 40 40 40 37 34 30 25 25 24 21 21 17 14 11 11 11 4 357 355 352 353 351 351 345 335 334 331 330 334 341 347 352 358 10 10 1 352 348 345
103 86 63 50 45 42 42 40 37 31 27 24 20 19 19 17 14 11 12 8 358 357 357 356 355 345 348 340 328 323 321 321 316 325 332 341 347 349 358 4 355 349 344
119 95 71 53 49 45 45 44 41 35 30 22 19 17 15 15 14 12 10 6 359 0 360 356 351 346 341 341 326 312 307 299 302 304 314 322 336 336 336 346 344 343 341
121 101 83 62 48 51 54 50 42 36 29 21 19 16 11 10 11 10 10 7 4 2 360 356 346 348 343 337 321 311 300 287 285 294 304 316 324 327 329 330 326 328 336
131 116 94 69 45 34 31 20 19 15 11 14 15 13 8 9 7 7 5 3 1 0 353 349 343 343 350 344 326 322 301 276 270 282 313 312 315 321 322 323 323 324 320
162 146 104 71 46 26 10 3 358 357 360 2 4 8 7 6 3 359 358 354 352 345 343 348 349 341 341 347 332 311 305 283 303 314 301 302 311 321 318 320 320 323 315
183 178 153 83 43 21 17 19 26 10 349 352 354 356 0 0 360 357 348 345 343 339 332 336 336 334 324 326 328 306 287 286 314 278 288 300 315 317 312 311 309 307 304
191 180 171 142 54 21 20 25 15 358 346 335 334 337 346 353 355 352 347 340 336 332 327 325 320 309 301 304 299 286 279 280 271 285 276 285 301 305 303 302 296 291 290
188 181 177 168 102 11 1 1 0 352 334 329 327 332 338 345 348 348 343 337 331 325 321 320 311 300 288 287 289 284 278 271 254 255 271 281 293 290 294 297 293 284 280
182 180 182 182 210 287 315 322 317 319 321 322 325 328 329 333 336 341 335 329 323 319 313 310 304 298 284 276 278 271 267 259 264 265 268 274 279 285 289 284 282 281 274
Height
1558 1558 1557 1556 1556 1555 1555 1554 1553 1552 1551 1551 1550 1549 1548 1547 1547 1546 1546 1545 1545 1544 1544 1543 1543 1542 1542 1541 1541 1541 1541 1541 1541 1541 1541 1540 1540 1540 1540 1540 1540 1540 1539
1558 1558 1557 1557 1556 1556 1555 1554 1553 1552 1552 1551 1550 1550 1549 1548 1548 1547 1547 1546 1546 1545 1545 1544 1544 1543 1543 1543 1542 1542 1542 1542 1542 1542 1542 1542 1542 1541 1541 1541 1541 1541 1541
1558 1558 1557 1557 1556 1556 1555 1554 1554 1553 1552 1551 1551 1550 1550 1549 1548 1548 1547 1547 1546 1546 1545 1545 1545 1544 1544 1544 1543 1543 1543 1543 1543 1543 1543 1543 1543 1542 1542 1542 1542 1542 1542
1558 1558 1557 1557 1556 1556 1555 1554 1554 1553 1553 1552 1551 1551 1550 1550 1549 1548 1548 1548 1547 1547 1546 1546 1546 1545 1545 1544 1544 1544 1544 1544 1544 1544 1545 1544 1544 1543 1543 1543 1543 1543 1543
1558 1558 1557 1557 1556 1556 1555 1555 1554 1553 1553 1552 1551 1551 1550 1550 1549 1549 1549 1548 1548 1547 1547 1546 1546 1546 1546 1545 1545 1544 1544 1544 1545 1545 1545 1545 1545 1544 1544 1544 1544 1544 1544
1558 1558 1557 1557 1556 1556 1555 1554 1554 1553 1553 1552 1552 1551 1550 1550 1550 1549 1549 1548 1548 1548 1547 1547 1546 1546 1546 1546 1545 1545 1545 1545 1545 1546 1545 1545 1545 1544 1544 1545 1545 1545 1544
1558 1557 1557 1556 1556 1555 1555 1554 1554 1553 1553 1552 1551 1551 1550 1550 1550 1549 1549 1548 1548 1548 1547 1547 1546 1546 1546 1545 1545 1545 1545 1545 1546 1546 1546 1545 1545 1545 1545 1545 1545 1545 1545
1558 1557 1557 1556 1556 1555 1555 1554 1553 1553 1552 1552 1551 1550 1550 1550 1549 1549 1549 1548 1548 1548 1547 1547 1546 1546 1546 1545 1545 1545 1545 1545 1546 1546 1546 1545 1545 1545 1545 1544 1544 1544 1544
1558 1557 1557 1556 1556 1555 1554 1554 1553 1552 1552 1551 1551 1550 1550 1549 1549 1548 1548 1548 1547 1547 1547 1546 1546 1546 1545 1545 1545 1545 1545 1545 1546 1545 1545 1545 1544 1544 1544 1544 1544 1544 1544
1557 1557 1556 1556 1555 1555 1554 1553 1552 1552 1551 1550 1550 1549 1549 1549 1548 1548 1547 1547 1547 1546 1546 1546 1545 1545 1545 1545 1544 1544 1544 1545 1545 1545 1545 1544 1544 1544 1543 1543 1543 1543 1543
1557 1556 1556 1555 1555 1554 1553 1552 1552 1551 1550 1550 1549 1549 1548 1548 1547 1547 1547 1546 1546 1546 1545 1545 1545 1544 1544 1544 1544 1544 1544 1544 1544 1544 1544 1543 1543 1543 1543 1542 1542 1542 1542
1556 1555 1555 1554 1554 1553 1553 1552 1551 1550 1550 1549 1548 1548 1547 1547 1547 1546 1546 1545 1545 1544 1544 1544 1544 1544 1544 1544 1544 1543 1543 1543 1543 1543 1542 1542 1542 1542 1541 1541 1541 1541 1541
1555 1555 1554 1554 1553 1552 1552 1551 1550 1549 1548 1548 1547 1547 1546 1546 1545 1545 1545 1544 1544 1543 1543 1543 1543 1543 1543 1542 1542 1542 1542 1542 1542 1542 1541 1541 1541 1541 1540 1540 1540 1540 1540
1554 1554 1553 1553 1552 1551 1551 1550 1549 1548 1547 1547 1546 1546 1545 1544 1544 1543 1543 1542 1542 1541 1541 1541 1541 1541 1541 1541 1541 1541 1541 1541 1541 1540 1540 1540 1539 1539 1539 1539 1539 1538 1539
1553 1553 1552 1552 1551 1551 1550 1549 1548 1547 1546 1546 1545 1544 1544 1543 1542 1541 1541 1541 1540 1540 1540 1539 1539 1539 1539 1539 1539 1539 1539 1539 1539 1539 1538 1538 1537 1537 1537 1537 1537 1536 1537
1552 1551 1551 1551 1550 1550 1549 1548 1547 1546 1545 1544 1544 1543 1542 1542 1541 1540 1540 1539 1539 1538 1538 1537 1537 1537 1537 1537 1537 1537 1537 1537 1537 1537 1536 1536 1535 1535 1535 1535 1535 1535 1535
1550 1550 1550 1549 1549 1548 1548 1547 1546 1545 1544 1543 1542 1542 1541 1540 1540 1539 1538 1537 1537 1536 1536 1535 1535 1535 1534 1534 1534 1534 1534 1534 1534 1534 1534 1534 1533 1533 1533 1533 1532 1532 1532
1549 1549 1549 1548 1548 1547 1547 1546 1545 1544 1543 1542 1541 1540 1539 1539 1538 1537 1536 1535 1535 1534 1534 1533 1533 1532 1531 1531 1531 1531 1531 1531 1531 1531 1531 1531 1531 1530 1530 1530 1530 1530 1530
1547 1547 1547 1547 1546 1546 1545 1544 1543 1542 1541 1540 1539 1539 1538 1537 1536 1535 1534 1533 1532 1532 1531 1531 1530 1529 1529 1528 1528 1528 1528 1528 1528 1528 1528 1528 1528 1528 1527 1527 1527 1527 1527
1546 1546 1546 1546 1545 1544 1543 1543 1542 1541 1540 1539 1538 1537 1536 1535 1534 1533 1532 1531 1530 1530 1529 1528 1528 1527 1526 1525 1525 1525 1525 1525 1525 1525 1525 1525 1525 1525 1525 1524 1524 1524 1523
1544 1544 1544 1543 1543 1542 1542 1541 1540 1539 1538 1537 1536 1535 1534 1532 1531 1531 1530 1529 1528 1527 1526 1526 1525 1524 1524 1523 1522 1521 1521 1522 1522 1522 1522 1522 1522 1522 1522 1521 1521 1520 1520
1542 1542 1542 1542 1541 1541 1540 1539 1538 1537 1536 1535 1534 1532 1531 1530 1529 1528 1527 1526 1525 1525 1524 1523 1522 1521 1521 1521 1520 1519 1519 1520 1519 1519 1519 1519 1519 1519 1518 1518 1517 1517 1516
1540 1540 1540 1540 1540 1539 1539 1538 1537 1535 1534 1533 1532 1530 1529 1527 1526 1525 1524 1524 1522 1522 1521 1520 1519 1519 1518 1518 1518 1519 1518 1516 1515 1515 1515 1515 1515 1515 1514 1514 1513 1513 1513
1537 1538 1538 1538 1538 1537 1536 1535 1534 1532 1531 1530 1529 1527 1526 1525 1524 1523 1521 1520 1519 1519 1518 1517 1516 1516 1516 1515 1515 1515 1516 1515 1514 1511 1511 1511 1511 1510 1510 1510 1509 1509 1508
1535 1536 1536 1536 1536 1535 1534 1533 1532 1531 1529 1528 1526 1525 1523 1522 1521 1520 1518 1517 1516 1515 1514 1513 1513 1512 1512 1512 1511 1511 1511 1511 1511 1509 1507 1507 1506 1506 1505 1505 1504 1504 1504
1532 1533 1533 1533 1533 1533 1532 1531 1529 1528 1527 1525 1524 1522 1521 1519 1518 1517 1515 1514 1513 1512 1511 1509 1509 1508 1508 1508 1507 1507 1507 1507 1507 1506 1503 1501 1501 1500 1500 1500 1499 1499 1499